Location: Julian California
(33.0790°N, 116.6010°W)
Time: 20:41:58
(UTC-08:00)

USA 267 - Pass Details

Date: 19 May 2017
Orbit: 1099 x 1109 km, 123.0° (Epoch: 17 November)

Event Time Altitude Azimuth Distance (km) Brightness Sun altitude
Rises 21:36:20 0° 48° (NE) 3,928 6.1 -20.7°
Reaches altitude 10° 21:38:56 10° 54° (NE) 2,966 5.4 -21.1°
Maximum altitude 21:45:14 48° 128° (SE) 1,400 3.4 -22.0°
Drops below altitude 10° 21:51:29 10° 201° (SSW) 2,947 5.3 -23.0°
Sets 21:54:03 0° 207° (SSW) 3,901 6.0 -23.3°
